{"data":{"norad_id":43632,"epoch":"2026-05-25T03:57:31.025088Z","epoch_age_seconds":57412,"freshness":"FRESH","line1":"1 43632U 18074A   26145.16494242  .00000134  00000+0  00000+0 0  9994","line2":"2 43632   0.0203 300.4649 0001382 117.5880 289.1906  1.00271043 28211","mean_motion":1.00271043,"eccentricity":0.0001382,"inclination_deg":0.0203,"raan_deg":300.4649,"arg_perigee_deg":117.588,"mean_anomaly_deg":289.1906,"bstar":0,"rev_number":2821,"period_min":1436.1075310646,"perigee_km":35780.975777305,"apogee_km":35792.630166713,"semimajor_km":42164.939972009,"source":"CELESTRAK","updated_at":"2026-05-25T13:38:14.336525Z"}}